Tracking 35274 objects as of 12-Sep-2026
HD Live streaming from Space Station
objects crossing your sky now

STARLINK-30497

Track STARLINK-30497 now!
10-day predictions
STARLINK-30497 is classified as:


NORAD ID: 58011
Int'l Code: 2023-153W
Launch date: October 5, 2023
Source: United States (US)
Launch site: AIR FORCE EASTERN TEST RANGE (AFETR)
Your satellite tracking list
Your tracking list is empty




NASA's NSSDC Master Catalog

Two Line Element Set (TLE):
1 58011U 23153W   26254.86790281  .00000557  00000-0  29767-4 0  9991
2 58011  43.0033  95.2867 0001269 256.4639 103.6072 15.27581824163372
Source of the keplerian elements: AFSPC